TIME,DELAY(SENSOR),PRES,OXYGEN,RAWTEMP,T(OPTODE),TCPHASE,FLUOR,BETA(BETA700),BETA(BETA412),BETA(BETA440),CDOM,C(CSC),ED(ED411.90),ED(ED443.80),ED(ED489.40),ED(ED554.70),LU(LU412.20),LU(LU443.80),LU(LU489.40),LU(LU555.00),COMP,TILTX,TILTY,CHECK
1351980155,5805,867.4199829101562000,159.4857025146484400,420.5419921875000000,9.9756317138671880,39.3466300964355500,53,109,68,64,73,13725,2146961270,2147519186,2147289161,2147505161,2147090194,2146934628,2147700297,2147119606,561,-1,8,18904
1351983751,5804,996.7299804687500000,196.9194946289062500,498.4910888671875000,7.5762968063354490,38.0643081665039060,52,101,66,65,72,13728,2146962505,2147520301,2147295533,2147521408,2147091684,2146925622,2147713371,2147119616,3132,-1,8,40621
1351987351,5806,1022.5200195312500000,207.1024932861328000,509.1536865234375000,7.2452259063720700,37.6281700134277340,52,102,68,64,71,13729,2146960822,2147520210,2147295195,2147517403,2147088886,2146924141,2147719524,2147118400,3548,0,8,49822
1351990951,5803,1025.4399414062500000,209.6289978027343800,511.2193908691406000,7.1809959411621090,37.5149803161621100,52,100,67,64,72,13724,2146961380,2147520411,2147296795,2147519387,2147089179,2146924297,2147721344,2147120210,3443,-1,8,47474
1351994551,5806,1030.1199951171875000,212.0003051757812500,513.8715820312500000,7.0984869003295900,37.4231300354003900,52,99,66,63,72,13671,2146958098,2147521170,2147298889,2147523593,2147092077,2146925376,2147723026,2147119698,3351,-1,8,49848
1351998151,5805,1029.1600341796875000,211.2265014648437500,514.2012939453125000,7.0882267951965330,37.4737510681152340,52,100,67,64,72,13724,2146960137,2147520256,2147297014,2147521088,2147089737,2146922870,2147720594,2147119853,3463,-1,8,10043
1352001751,5805,1030.5799560546875000,212.9113006591797000,515.1201171875000000,7.0596318244934080,37.3923301696777340,52,99,68,63,71,13723,2146963382,2147515904,2147296502,2147523510,2147092864,2146923346,2147718080,2147123456,129,-1,8,3334
1352005351,5808,1028.5000000000000000,213.4750061035156200,517.4011230468750000,6.9886088371276855,37.3998603820800800,52,101,68,64,72,13724,2146960411,2147521901,2147300754,2147524379,2147088338,2146924763,2147722267,2147118902,39,-1,8,19452
1352008951,5804,1030.8800048828125000,215.2834014892578000,518.2493286132812000,6.9621930122375490,37.3113288879394500,52,101,66,64,72,13723,2146962194,2147518729,2147298002,2147522642,2147090422,2146921837,2147719753,2147124022,3434,-1,8,6258
1352012551,5807,1031.6600341796875000,214.9416961669922000,519.0015258789062000,6.9387588500976560,37.3433914184570300,52,104,67,64,72,13720,2146963693,2147521325,2147297618,2147523986,2147092516,2146924589,2147720210,2147120100,9,0,8,52701
1352016151,5805,1029.1300048828125000,214.8596038818359400,519.9697265625000000,6.9085907936096190,37.3653907775878900,52,100,67,64,71,13721,2146965586,2147519104,2147298230,2147520274,2147091190,2146922934,2147723062,2147120475,3124,-1,8,60740
1352019751,5807,1030.4699707031250000,216.9586029052734400,519.4622192382812000,6.9244041442871090,37.2365989685058600,53,103,66,65,72,13720,2146958848,2147520704,2147298953,2147522139,2147090121,2146921627,2147719762,2147120301,3289,-1,8,13359
1352023351,5807,1038.4300537109375000,215.6159973144531200,518.8930053710938000,6.9421391487121580,37.3033981323242200,51,99,67,64,71,13718,2146962724,2147519744,2147298377,2147523035,2147090413,2146921078,2147722240,2147121472,120,-1,8,59183
1352026951,5807,1037.4000244140625000,214.1992950439453000,518.8135986328125000,6.9446129798889160,37.3827400207519500,52,104,67,63,73,13717,2146964288,2147518299,2147299840,2147521920,2147092114,2146928155,2147718957,2147122934,3552,-1,8,61436
1352030551,5803,1027.4399414062500000,213.2395019531250000,516.0941162109375000,7.0293078422546390,37.3905296325683600,52,102,68,64,72,13714,2146963474,2147515794,2147294930,2147521810,2147092224,2146925641,2147720484,2147120502,3493,-1,8,5852
1352034151,5805,1026.3199462890625000,214.4255065917968800,516.8754882812500000,7.0049791336059570,37.3354492187500000,52,100,67,64,71,13713,2146964982,2147519286,2147298002,2147520758,2147089152,2146928987,2147718061,2147119186,3321,0,8,14342
1352037751,5805,1026.8000488281250000,213.6284027099609400,516.8397827148438000,7.0060892105102540,37.3811416625976560,52,101,67,64,72,13692,2146965842,2147519049,2147297197,2147523913,2147089956,2146922029,2147721947,2147123254,3296,-1,8,64510
1352041351,5803,1032.4699707031250000,213.2472991943359400,515.5488891601562000,7.0462827682495120,37.3804283142089840,52,99,66,65,72,13690,2146964763,2147515620,2147295232,2147521252,2147092708,2146923510,2147721344,2147122468,2995,-1,8,5669
1352044951,5806,1036.4899902343750000,212.3981018066406200,514.0408935546875000,7.0932202339172360,37.4024810791015600,53,101,67,63,72,13693,2146964132,2147519771,2147295661,2147519424,2147089974,2146920420,2147723373,2147120630,3262,-1,8,6556
1352048551,5807,1039.9499511718750000,211.0590057373047000,512.8331909179688000,7.1307978630065920,37.4591293334960940,52,101,67,65,72,13693,2146964918,2147517915,2147297124,2147520320,2147091392,2146925650,2147717741,2147122249,3302,-1,8,6822
1352052151,5807,1021.7299804687500000,205.4683074951172000,505.2276916503906000,7.3672180175781250,37.6574897766113300,53,101,65,64,72,13690,2146963392,2147519195,2147296704,2147516342,2147092946,2146926262,2147717174,2147126171,3158,-1,8,26940
1352055751,5808,1019.6599731445312000,204.0970001220703000,503.4476928710937500,7.4224920272827150,37.7088203430175800,52,100,66,64,72,13688,2146965952,2147515922,2147295012,2147515117,2147092141,2146920576,2147715648,2147119488,54,-1,8,13713
1352059351,5807,1020.3800048828125000,203.9689941406250000,503.8453063964844000,7.4101481437683105,37.7234191894531250,52,102,66,64,72,13688,2146965430,2147521325,2147295716,2147517065,2147089462,2146922166,2147717312,2147121170,3204,-1,8,26211
1352062951,5807,1014.8800048828125000,205.1069946289062500,505.3374938964844000,7.3638072013854980,37.6810493469238300,51,104,66,64,71,13689,2146964397,2147518217,2147297856,2147522614,2147087341,2146924589,2147718665,2147121380,172,-1,8,7567
1352066551,5803,1008.8800048828125000,203.9375000000000000,506.5122985839844000,7.3273119926452640,37.7725410461425800,52,100,67,63,72,13684,2146962230,2147519369,2147295643,2147518820,2147087990,2146928640,2147723126,2147117458,3127,-1,8,47822
1352070151,5807,1010.3900146484375000,207.3043060302734400,507.9942932128906000,7.2812628746032715,37.5963287353515600,52,100,67,64,72,13676,2146961353,2147519835,2147295378,2147519424,2147087789,2146925083,2147717385,2147117997,56,-1,8,48176
1352073751,5807,1010.5999755859375000,207.6824951171875000,508.3656005859375000,7.2697238922119140,37.5797615051269500,52,101,66,64,73,13677,2146963401,2147520274,2147299136,2147517220,2147090386,2146929508,2147719405,2147122157,263,-1,8,16851
1352077351,5807,1013.3200073242188000,207.0868072509765600,507.9862060546875000,7.2815132141113280,37.6082801818847660,52,101,66,64,73,13674,2146962212,2147520246,2147297499,2147519926,2147090852,2146922614,2147718253,2147123035,110,-1,8,10344
1352080951,5808,1014.9000244140625000,206.1390075683593800,507.1321105957031000,7.3080558776855470,37.6504402160644500,52,101,66,63,72,13662,2146961764,2147517988,2147295780,2147522011,2147091629,2146923090,2147720987,2147122194,243,-1,8,38651
1352084551,5808,1015.8599853515625000,206.7866973876953000,507.5208129882812500,7.2959761619567870,37.6183700561523440,52,101,68,63,72,13665,2146964452,2147517961,2147297435,2147518957,2147088978,2146920758,2147718025,2147123145,106,-1,8,32534
1352088151,5807,1016.1199951171875000,206.1309967041015600,507.4937133789062500,7.2968201637268070,37.6569404602050800,51,100,66,64,71,13663,2146961069,2147516836,2147296896,2147519689,2147090294,2146924882,2147720164,2147119424,126,0,8,4976
1352091751,5806,1015.3099975585938000,206.0532073974609400,507.6765136718750000,7.2911410331726070,37.6656303405761700,52,103,68,63,72,13664,2146963236,2147517540,2147299163,2147518491,2147089974,2146927899,2147718409,2147119990,3345,0,8,51154
1352095351,5807,1011.4799804687500000,205.9356994628906200,508.1083984375000000,7.2777180671691895,37.6798706054687500,53,102,67,64,72,13660,2146963008,2147522377,2147299529,2147517741,2147090075,2146924251,2147720182,2147118390,3263,-1,8,54863
1352098951,5805,1013.7800292968750000,205.7169952392578000,508.5437927246094000,7.2641859054565430,37.7006492614746100,52,103,66,65,72,13663,2146965220,2147521115,2147299136,2147518619,2147090304,2146921051,2147719936,2147123648,511,-1,8,28791
1352102551,5809,1012.9799804687500000,205.7808074951172000,508.1531982421875000,7.2763237953186035,37.6898498535156250,52,103,66,63,73,13662,2146960502,2147517577,2147294875,2147519232,2147088484,2146926893,2147718729,2147121261,323,-1,8,19125
1352106151,5806,1019.5999755859375000,206.8240966796875000,507.3399963378906000,7.3015961647033690,37.6132202148437500,51,105,65,64,71,13660,2146961188,2147519442,2147298633,2147519661,2147090459,2146922770,2147716251,2147119588,1081,-1,8,62296
1352109751,5806,1016.7000122070312000,204.7776947021484400,507.5343017578125000,7.2955570220947270,37.7392196655273440,53,101,66,62,72,13658,2146961270,2147520896,2147294537,2147518336,2147092918,2146925220,2147716790,2147123574,237,-1,8,24240
1352113351,5807,1019.6099853515625000,205.7481994628906200,507.4277038574219000,7.2988700866699220,37.6792984008789060,52,101,68,64,72,13657,2146962322,2147520621,2147297014,2147519186,2147090413,2146928566,2147716617,2147125952,183,0,8,18352
1352116951,5805,1020.9500122070312000,205.7243041992187500,506.1944885253906000,7.3371839523315430,37.6594009399414060,52,101,66,65,72,13657,2146962779,2147518646,2147295433,2147518866,2147090678,2146924425,2147715008,2147121581,3395,-1,8,44051
1352120551,5803,1025.2299804687500000,205.1795043945312500,505.2272033691406000,7.3672327995300290,37.6745986938476560,52,102,66,65,73,13655,2146964653,2147518985,2147298688,2147517979,2147092745,2146923337,2147717129,2147123986,2991,-1,8,28637
1352123155,5806,1031.4300537109375000,204.1439056396484400,503.4967041015625000,7.4209709167480470,37.7067985534668000,52,103,66,64,73,13681,2146965348,2147519250,2147295286,2147518372,2147092141,2146922998,2147717632,2147119305,2611,-1,8,12824
